Waarnemingen

Advertentie
Mijn weer
Capo Carbonara, Italië (16564): temperatuur & dauwpunt: 15.05.2018 19:00:00 - 21.05.2018 19:00:00 (CEST)Capo Carbonara, Italië (16564): windsnelheid: 15.05.2018 19:00:00 - 21.05.2018 19:00:00 (CEST)Capo Carbonara, Italië (16564): windrichting: 15.05.2018 19:00:00 - 21.05.2018 19:00:00 (CEST)Capo Carbonara, Italië (16564): luchtdruk: 15.05.2018 19:00:00 - 21.05.2018 19:00:00 (CEST)Capo Carbonara, Italië (16564): zicht: 15.05.2018 19:00:00 - 21.05.2018 19:00:00 (CEST)
Datum & Tijd tt [°C] td [°C] ff [km/u] ff [kn] dd ppp [hPa] vv [km]
21.05.2018 19:00:00 - - - - - - -
21.05.2018 18:00:00 18,0 14,0 9 5 ONO - 10
21.05.2018 17:00:00 17,6 14,1 13 7 ONO 1011,1 10
21.05.2018 16:00:00 17,0 14,0 13 7 ONO - 10
21.05.2018 15:00:00 17,0 14,0 13 7 NO - 10
21.05.2018 14:00:00 16,8 13,5 15 8 NO 1011,8 16
21.05.2018 13:00:00 16,0 13,0 13 7 NO - 10
21.05.2018 12:00:00 16,0 13,0 16 9 NO - 10
21.05.2018 11:00:00 15,4 12,7 16 9 ONO 1012,0 16
21.05.2018 10:00:00 15,0 13,0 16 9 NO - 10
21.05.2018 09:00:00 16,0 14,0 8 4 NO - 10
21.05.2018 08:00:00 16,0 13,7 9 5 W 1012,3 18
21.05.2018 07:00:00 15,0 13,0 13 7 NNO - 10
21.05.2018 06:00:00 16,0 13,0 13 7 NO - 10
21.05.2018 05:00:00 16,2 12,7 13 7 NO 1011,6 18
21.05.2018 04:00:00 16,0 12,0 11 6 NO - 10
21.05.2018 03:00:00 16,0 14,0 9 5 ONO - 10
21.05.2018 02:00:00 16,8 13,0 9 5 NO 1012,2 18
21.05.2018 01:00:00 16,0 14,0 11 6 N - 10
21.05.2018 00:00:00 16,0 13,0 18 10 NO - 10
20.05.2018 23:00:00 16,2 12,0 21 11 NO 1012,3 10
20.05.2018 22:00:00 16,0 14,0 11 6 N - 8
20.05.2018 21:00:00 18,0 15,0 0 0 N - 8
20.05.2018 20:00:00 18,2 15,8 15 8 ONO 1012,1 18
20.05.2018 19:00:00 19,0 16,0 22 12 ONO - 10
20.05.2018 18:00:00 19,0 17,0 24 13 ONO - 10
20.05.2018 17:00:00 19,8 17,6 24 13 ONO 1011,7 20
20.05.2018 16:00:00 20,0 18,0 24 13 ONO - 10
20.05.2018 15:00:00 21,0 19,0 22 12 ONO - 10
20.05.2018 14:00:00 22,0 18,4 26 14 ONO 1012,6 20
20.05.2018 13:00:00 21,0 18,0 26 14 ONO - 10
20.05.2018 12:00:00 21,0 18,0 28 15 ONO - 10
20.05.2018 11:00:00 20,0 16,8 26 14 ONO 1012,7 20
20.05.2018 10:00:00 19,0 16,0 24 13 ONO - 10
20.05.2018 09:00:00 19,0 15,0 22 12 NO - 10
20.05.2018 08:00:00 18,0 14,1 22 12 NO 1012,9 18
20.05.2018 07:00:00 17,0 15,0 18 10 NNO - 10
20.05.2018 06:00:00 17,0 15,0 18 10 NNO - 10
20.05.2018 05:00:00 17,0 11,9 11 6 NNO 1013,4 18
20.05.2018 04:00:00 16,0 13,0 13 7 ONO - 10
20.05.2018 03:00:00 17,0 11,0 2 1 N - 10
20.05.2018 02:00:00 16,4 14,1 9 5 W 1014,2 18
20.05.2018 01:00:00 16,0 14,0 13 7 W - 10
20.05.2018 00:00:00 16,0 14,0 13 7 WZW - 10
19.05.2018 23:00:00 16,8 14,3 9 5 W 1014,3 10
19.05.2018 22:00:00 17,0 15,0 11 6 WZW - 10
19.05.2018 21:00:00 17,0 15,0 5 3 NW - 10
19.05.2018 20:00:00 18,0 15,6 9 5 ONO 1013,6 18
19.05.2018 19:00:00 19,0 16,0 8 4 ONO - 10
19.05.2018 18:00:00 20,0 16,0 11 6 O - 10
19.05.2018 17:00:00 21,0 16,4 9 5 O 1014,3 18
19.05.2018 16:00:00 22,0 18,0 11 6 OZO - 10
19.05.2018 15:00:00 22,0 15,0 18 10 O - 10
19.05.2018 14:00:00 21,0 16,4 16 9 ONO 1014,5 18
19.05.2018 13:00:00 21,0 16,0 22 12 ONO - 10
19.05.2018 12:00:00 21,0 15,0 21 11 ONO - 10
19.05.2018 11:00:00 19,2 14,7 24 13 ONO 1014,7 18
19.05.2018 10:00:00 18,0 15,0 18 10 ONO - 10
19.05.2018 09:00:00 17,0 14,0 15 8 ONO - 10
19.05.2018 08:00:00 16,6 13,3 11 6 ONO 1014,6 18
19.05.2018 07:00:00 16,0 13,0 5 3 NNO - 10
19.05.2018 06:00:00 15,0 12,0 9 5 ONO - 10
19.05.2018 05:00:00 15,2 12,5 11 6 NNO 1014,2 16
19.05.2018 04:00:00 15,0 13,0 11 6 NNO - 10
19.05.2018 03:00:00 16,0 14,0 2 1 NW - 10
19.05.2018 02:00:00 16,4 13,9 5 3 ZW 1014,7 16
19.05.2018 01:00:00 17,0 14,0 0 0 N - 10
19.05.2018 00:00:00 17,0 14,0 5 3 NO - 10
18.05.2018 23:00:00 17,0 14,7 9 5 ONO 1014,9 10
18.05.2018 22:00:00 17,0 15,0 13 7 NO - 10
18.05.2018 21:00:00 17,0 15,0 15 8 ONO - 10
18.05.2018 20:00:00 17,8 13,5 22 12 ONO 1014,3 18
18.05.2018 19:00:00 18,0 15,0 24 13 ONO - 10
18.05.2018 18:00:00 21,0 17,0 26 14 ONO - 10
18.05.2018 17:00:00 20,2 16,0 24 13 ONO 1014,1 20
18.05.2018 16:00:00 21,0 16,0 22 12 ONO - 10
18.05.2018 15:00:00 22,0 16,0 28 15 ONO - 10
18.05.2018 14:00:00 21,2 16,8 31 17 ONO 1014,5 20
18.05.2018 13:00:00 20,0 16,0 29 16 ONO - 10
18.05.2018 12:00:00 19,0 15,0 28 15 ONO - 10
18.05.2018 11:00:00 18,6 14,3 24 13 ONO 1014,6 20
18.05.2018 10:00:00 18,0 14,0 28 15 ONO - 10
18.05.2018 09:00:00 18,0 14,0 24 13 NO - 10
18.05.2018 08:00:00 17,0 14,1 29 16 NO 1014,6 20
18.05.2018 07:00:00 17,0 14,0 21 11 NO - 10
18.05.2018 06:00:00 16,0 13,0 18 10 NO - 10
18.05.2018 05:00:00 15,8 13,3 26 14 NNO 1014,1 20
18.05.2018 04:00:00 16,0 13,0 16 9 NO - 10
18.05.2018 03:00:00 16,0 13,0 21 11 NO - 10
18.05.2018 02:00:00 15,8 13,7 15 8 NO 1015,0 20
18.05.2018 01:00:00 16,0 14,0 13 7 NO - 10
18.05.2018 00:00:00 16,0 14,0 13 7 O - 10
17.05.2018 23:00:00 16,4 14,2 11 6 ONO 1015,0 20
17.05.2018 22:00:00 17,0 14,0 13 7 NO - 10
17.05.2018 21:00:00 17,0 14,0 13 7 NO - 10
17.05.2018 20:00:00 18,0 13,5 9 5 ONO 1014,4 20
17.05.2018 19:00:00 20,0 14,0 9 5 O - 10
17.05.2018 18:00:00 20,0 14,0 13 7 O - 10
17.05.2018 17:00:00 22,0 14,1 15 8 O 1014,3 20
17.05.2018 16:00:00 22,0 14,0 15 8 O - 10
17.05.2018 15:00:00 21,0 15,0 11 6 O - 10
17.05.2018 14:00:00 21,0 14,7 11 6 O 1014,7 20
17.05.2018 13:00:00 21,0 14,0 11 6 O - 10
17.05.2018 12:00:00 21,0 14,0 13 7 O - 10
17.05.2018 11:00:00 20,0 13,2 15 8 O 1014,7 20
17.05.2018 10:00:00 17,0 13,0 9 5 ONO - 10
17.05.2018 09:00:00 16,0 12,0 9 5 W - 10
17.05.2018 08:00:00 16,2 11,8 5 3 NO 1014,4 20
17.05.2018 07:00:00 15,0 11,0 8 4 W - 10
17.05.2018 06:00:00 14,0 12,0 11 6 W - 10
17.05.2018 05:00:00 14,6 11,9 24 13 WZW 1014,1 20
17.05.2018 04:00:00 15,0 11,0 28 15 W - 10
17.05.2018 03:00:00 15,0 12,0 26 14 WZW - 10
17.05.2018 02:00:00 15,4 12,7 26 14 WZW 1014,4 20
17.05.2018 01:00:00 16,0 12,0 13 7 WZW - 10
17.05.2018 00:00:00 16,0 14,0 18 10 W - 10
16.05.2018 23:00:00 16,4 13,7 24 13 WZW 1014,4 20
16.05.2018 22:00:00 17,0 14,0 26 14 W - 10
16.05.2018 21:00:00 18,0 14,0 37 20 W - 10
16.05.2018 20:00:00 19,0 14,7 34 18 WZW 1013,7 20
16.05.2018 19:00:00 20,0 16,0 22 12 ZZW - 10
16.05.2018 18:00:00 20,0 16,0 31 17 ZW - 10
16.05.2018 17:00:00 19,6 15,5 37 20 ZZW 1014,1 20
16.05.2018 16:00:00 20,0 16,0 35 19 ZZW - 10
16.05.2018 15:00:00 20,0 15,0 37 20 ZW - 10
16.05.2018 14:00:00 19,0 14,1 39 21 WZW 1015,0 20
16.05.2018 13:00:00 19,0 14,0 37 20 WZW - 10
16.05.2018 12:00:00 17,0 12,0 34 18 WZW - 10
16.05.2018 11:00:00 16,6 12,4 44 24 WZW 1015,7 20
16.05.2018 10:00:00 16,0 12,0 41 22 WZW - 10
16.05.2018 09:00:00 16,0 12,0 26 14 WZW - 10
16.05.2018 08:00:00 15,0 12,3 35 19 WZW 1015,2 20
16.05.2018 07:00:00 15,0 12,0 21 11 W - 10
16.05.2018 06:00:00 14,0 12,0 21 11 WZW - 10
16.05.2018 05:00:00 14,4 12,1 22 12 W 1015,3 18
16.05.2018 04:00:00 14,0 12,0 16 9 W - 10
16.05.2018 03:00:00 15,0 12,0 29 16 W - 10
16.05.2018 02:00:00 15,0 12,5 34 18 WZW 1015,4 20
16.05.2018 01:00:00 15,0 12,0 34 18 W - 10
16.05.2018 00:00:00 15,0 11,0 22 12 W - 10
15.05.2018 23:00:00 14,8 11,8 28 15 WNW 1015,7 20
15.05.2018 22:00:00 15,0 12,0 50 27 W - 10
15.05.2018 21:00:00 15,0 12,0 50 27 W - 10
15.05.2018 20:00:00 14,8 12,5 44 24 W 1014,8 20
15.05.2018 19:00:00 16,0 12,0 46 25 W - 10

tt = temperatuur
td = dauwpunt
ff = windsnelheid
dd = windrichting
ppp = luchtdruk
vv = zicht

Weerstations in de omgeving